FW0019 Weather Reports


time (UTC)temp
C
wind
direction
speed
KPH
gust
KPH
rain 1hr
cm
rain 24hr
cm
rain mn
cm
humidity
%
barometer
mb
20260505211525 6 156 20.9 37.0 0.00 1.70 1.68 97 876.5
20260505210011 5 161 19.3 43.5 0.00 1.70 1.68 97 876.6
20260505204508 6 144 20.9 35.4 0.03 1.70 1.68 98 876.5
20260505203006 5 146 19.3 37.0 0.03 1.70 1.68 98 876.5
20260505201507 4 109 16.1 33.8 0.03 1.70 1.68 98 876.6
20260505200005 4 114 19.3 33.8 0.05 1.70 1.68 98 876.7
20260505194507 5 96 14.5 25.7 0.03 1.68 1.65 98 876.6
20260505193003 4 111 17.7 27.4 0.10 1.68 1.65 98 876.8
20260505191503 5 157 14.5 35.4 0.15 1.68 1.65 98 876.9
20260505190005 5 125 14.5 27.4 0.15 1.65 1.63 98 876.7
20260505184501 5 113 12.9 30.6 0.18 1.65 1.63 98 876.7
20260505183105 5 137 16.1 27.4 0.15 1.57 1.55 98 876.6
20260505181559 4 101 16.1 33.8 0.18 1.52 1.50 98 876.5
20260505180104 4 78 16.1 25.7 0.20 1.50 1.45 98 876.6
20260505174556 5 117 19.3 38.6 0.20 1.45 1.42 97 876.3
20260505173053 5 143 19.3 38.6 0.18 1.42 1.40 98 876.1
20260505171556 5 126 12.9 35.4 0.13 1.35 1.32 98 875.9
20260505170051 5 123 12.9 29.0 0.13 1.32 1.27 98 875.7
20260505164550 5 101 11.3 27.4 0.18 1.30 1.24 98 875.6
20260505163048 5 145 16.1 29.0 0.15 1.27 1.22 98 875.5
20260505161547 5 127 17.7 33.8 0.13 1.24 1.19 98 875.3
20260505153050 5 124 17.7 40.2 0.05 1.12 1.07 98 875.1
20260505151546 5 138 19.3 38.6 0.15 1.12 1.07 97 875.0
20260505124535 5 123 19.3 33.8 0.25 0.69 0.64 97 874.0
20260505123033 5 115 12.9 32.2 0.15 0.56 0.51 97 874.1
20260505121537 5 138 24.1 38.6 0.13 0.53 0.48 97 873.9
20260505120031 5 107 14.5 29.0 0.05 0.43 0.38 97 873.9
20260505114529 5 98 16.1 38.6 0.08 0.43 0.38 97 874.0
20260505113038 5 165 19.3 37.0 0.08 0.41 0.36 97 873.9
20260505111540 5 162 19.3 49.9 0.13 0.41 0.36 97 874.0
20260505101532 5 58 14.5 38.6 0.18 0.28 0.23 97 874.1
20260505100020 5 5 6.4 24.1 0.15 0.23 0.18 97 874.1
20260505094521 5 134 12.9 25.7 0.15 0.20 0.15 97 874.3
20260505093017 5 104 12.9 25.7 0.10 0.15 0.10 97 874.3
20260505091516 4 96 6.4 22.5 0.05 0.10 0.05 97 874.6
20260505090017 3 130 9.7 20.9 0.03 0.08 0.03 97 874.7
20260505084525 3 136 12.9 25.7 0.00 0.05 0.00 97 874.7
20260505083011 4 100 12.9 25.7 0.00 0.05 0.00 97 874.8
20260505081510 4 144 11.3 29.0 0.00 0.05 0.00 97 875.0
20260505080021 4 68 8.0 24.1 0.00 0.05 0.00 97 875.3
20260505074507 4 88 12.9 33.8 0.00 0.05 0.00 97 875.2
20260505073005 5 136 14.5 27.4 0.00 0.05 0.00 97 875.3
20260505071502 5 188 19.3 33.8 0.00 0.05 0.00 97 875.1
20260505070107 5 129 17.7 38.6 0.00 0.05 0.05 97 875.3
20260505064559 5 143 20.9 35.4 0.00 0.05 0.05 97 875.2
20260505063058 5 156 22.5 40.2 0.00 0.05 0.05 97 875.4
20260505061618 5 152 20.9 45.1 0.00 0.05 0.05 97 875.4
20260505060100 5 135 22.5 33.8 0.00 0.05 0.05 97 875.6
20260505054557 5 131 19.3 40.2 0.00 0.05 0.05 96 875.6
20260505053057 4 128 17.7 38.6 0.00 0.05 0.05 96 875.7
20260505051555 4 125 17.7 40.2 0.00 0.05 0.05 96 875.7
20260505041557 5 111 19.3 45.1 0.03 0.05 0.05 95 875.8
20260505040101 5 134 19.3 38.6 0.00 0.03 0.03 95 875.7
20260505034554 5 127 22.5 45.1 0.00 0.03 0.03 95 875.6
20260505033100 5 115 22.5 43.5 0.00 0.03 0.03 95 875.5
20260505031555 5 116 20.9 41.8 0.00 0.03 0.03 95 875.3
20260505030051 5 143 19.3 45.1 0.00 0.03 0.03 94 875.4
20260505024550 5 121 17.7 38.6 0.00 0.03 0.03 94 875.1
20260505023047 6 128 22.5 37.0 0.00 0.03 0.03 93 875.1
20260505021545 6 125 25.7 38.6 0.00 0.03 0.03 91 875.2
20260505020044 6 96 25.7 46.7 0.00 0.03 0.03 90 875.0
20260505014545 6 94 27.4 38.6 0.00 0.03 0.03 90 875.1
20260505013043 6 125 19.3 45.1 0.00 0.03 0.03 88 875.6
20260505011545 7 121 19.3 48.3 0.00 0.03 0.03 85 875.6
20260505010056 7 129 24.1 40.2 0.00 0.03 0.03 84 875.7
20260505004543 7 142 22.5 49.9 0.00 0.03 0.03 83 875.8
20260505003042 7 122 22.5 48.3 0.00 0.03 0.03 81 875.9
20260505001541 8 116 20.9 35.4 0.00 0.03 0.03 81 875.8
20260505000049 8 63 20.9 43.5 0.00 0.03 0.03 79 875.9
20260504234540 8 63 22.5 45.1 0.00 0.03 0.03 77 875.9
20260504233040 8 146 27.4 41.8 0.00 0.03 0.03 75 876.0
20260504231539 8 112 25.7 41.8 0.00 0.03 0.03 74 876.0
20260504230040 8 157 22.5 43.5 0.00 0.03 0.03 78 876.1
20260504224539 8 133 20.9 38.6 0.00 0.03 0.03 77 876.1
20260504223038 8 140 25.7 43.5 0.00 0.03 0.03 76 876.1
20260504221541 8 104 22.5 45.1 0.00 0.03 0.03 75 876.3
20260504220046 8 103 25.7 46.7 0.00 0.03 0.03 76 876.3
20260504214538 8 144 22.5 40.2 0.00 0.03 0.03 79 876.5
20260504213051 8 83 22.5 40.2 0.00 0.03 0.03 79 876.7